Weather History for Kolkata, India

Change the Weather History Date:

Thursday, November 1, 2012

  Actual Average Record
Temperature  
Mean Temperature 80 °F -  
Max Temperature 90 °F 85 °F 90 °F (2012)
Min Temperature 71 °F 71 °F 66 °F (2004)
Cooling Degree Days 16    
Growing Degree Days 30 (Base 50)    
Moisture  
Dew Point 68 °F    
Average Humidity 67    
Maximum Humidity 78    
Minimum Humidity 41    
Precipitation  
Precipitation 0.00 in - - ()
Sea Level Pressure  
Sea Level Pressure 29.86 in    
Wind  
Wind Speed 2 mph ()    
Max Wind Speed 7 mph    
Max Gust Speed -    
Visibility 1.6 miles    
Events      
Averages and records for this station are not official NWS values.
T = Trace of Precipitation, MM = Missing Value Source: Averaged Metar Reports

Daily Weather History Graph

Daily Weather History Graph

Search for Another Location

Airport:

Trip Planner

Search our weather history database for the weather conditions in past years. The results will help you decide how hot, cold, wet, or windy it might be!

Date:

Astronomy

Nov. 01, 2012 Rise Set
Actual Time 5:40 AM IST 4:58 PM IST
Civil Twilight 5:17 AM IST 5:21 PM IST
Nautical Twilight 4:51 AM IST 5:48 PM IST
Astronomical Twilight 4:24 AM IST 6:14 PM IST
Moon 6:46 PM IST (11/1) 7:35 AM IST (11/1)
Length of Visible Light 12h 03m
Length of Day
11h 17m
Waning Gibbous, 95% of the Moon is Illuminated
Nov 1
Waning Gibbous
Nov 7
Last Quarter
Nov 14
New
Nov 20
First Quarter
Nov 28
Full

Hourly Weather History & Observations

Time (IST) Temp. Heat Index Dew Point Humidity Pressure Visibility Wind Dir Wind Speed Gust Speed Precip Events Conditions
12:20 AM 77.0 °F - 68.0 °F 74% 29.86 in 1.6 mi Calm Calm - N/A   Haze
12:50 AM 75.2 °F - 66.2 °F 73% 29.86 in 1.6 mi North 3.5 mph - N/A   Haze
1:20 AM 75.2 °F - 66.2 °F 73% 29.83 in 1.6 mi North 3.5 mph - N/A   Haze
1:50 AM 73.4 °F - 66.2 °F 78% 29.80 in 1.6 mi North 3.5 mph - N/A   Haze
2:20 AM 73.4 °F - 66.2 °F 78% 29.83 in 1.6 mi North 3.5 mph - N/A   Haze
2:30 AM 75 °F - 67 °F 71% 29.86 in 1 mi Calm Calm - -   Haze
2:50 AM 73.4 °F - 66.2 °F 78% 29.83 in 1.6 mi Calm Calm - N/A   Haze
3:20 AM 73.4 °F - 66.2 °F 78% 29.83 in 1.6 mi Calm Calm - N/A   Haze
3:50 AM 73.4 °F - 66.2 °F 78% 29.86 in 1.6 mi Calm Calm - N/A   Haze
4:20 AM 73.4 °F - 66.2 °F 78% 29.86 in 1.6 mi Calm Calm - N/A   Haze
4:50 AM 73.4 °F - 66.2 °F 78% 29.89 in 1.6 mi Calm Calm - N/A   Haze
5:20 AM 73.4 °F - 66.2 °F 78% 29.89 in 1.4 mi Calm Calm - N/A   Haze
5:30 AM 73 °F - 67 °F 75% 29.88 in 1 mi Calm Calm - -   Haze
5:50 AM 73.4 °F - 66.2 °F 78% 29.89 in 1.1 mi Calm Calm - N/A   Haze
6:20 AM 73.4 °F - 66.2 °F 78% 29.92 in 1.1 mi NNW 3.5 mph - N/A   Partly Cloudy
6:50 AM 73.4 °F - 64.4 °F 73% 29.92 in 1.1 mi North 3.5 mph - N/A   Partly Cloudy
7:20 AM 75.2 °F - 64.4 °F 69% 29.89 in 1.4 mi NNE 4.6 mph - N/A   Haze
7:50 AM 77.0 °F - 64.4 °F 65% 29.89 in 1.6 mi NNE 5.8 mph - N/A   Haze
8:20 AM 78.8 °F - 66.2 °F 65% 29.92 in 1.6 mi NNE 4.6 mph - N/A   Haze
8:30 AM 79 °F - 67 °F 60% 29.94 in 1 mi Calm Calm - -   Haze
8:50 AM 78.8 °F - 68.0 °F 69% 29.95 in 1.7 mi NNE 5.8 mph - N/A   Haze
9:20 AM 80.6 °F 82.7 °F 66.2 °F 61% 29.95 in 1.7 mi NNE 5.8 mph - N/A   Haze
10:20 AM 84.2 °F 87.3 °F 68.0 °F 58% 29.92 in - ENE 4.6 mph - N/A   Haze
10:50 AM 86.0 °F 89.4 °F 68.0 °F 55% 29.92 in - East 5.8 mph - N/A   Haze
11:20 AM 86.0 °F 90.4 °F 69.8 °F 58% 29.89 in 2.2 mi NNE 5.8 mph - N/A   Haze
11:30 AM 87 °F - 69 °F 45% 29.89 in 1 mi NW 3.5 mph - -   Haze
11:50 AM 87.8 °F 92.6 °F 69.8 °F 55% 29.89 in - ENE 4.6 mph - N/A   Haze
12:20 PM 87.8 °F 92.6 °F 69.8 °F 55% 29.86 in - NNE 4.6 mph - N/A   Haze
12:50 PM 89.6 °F 94.7 °F 69.8 °F 52% 29.86 in - Calm Calm - N/A   Haze
1:20 PM 89.6 °F 94.7 °F 69.8 °F 52% 29.83 in - Calm Calm - N/A   Haze
1:50 PM 89.6 °F 94.7 °F 69.8 °F 52% 29.80 in 2.2 mi NNE 3.5 mph - N/A   Haze
2:20 PM 89.6 °F 94.7 °F 69.8 °F 52% 29.74 in 2.2 mi North 5.8 mph - N/A   Haze
2:30 PM 90 °F - 69 °F 41% 29.82 in 1 mi Calm Calm - -   Haze
2:50 PM 89.6 °F 94.7 °F 69.8 °F 52% 29.74 in 2.2 mi NNE 6.9 mph - N/A   Haze
3:20 PM 87.8 °F 92.6 °F 69.8 °F 55% 29.77 in 2.2 mi NNE 6.9 mph - N/A   Haze
3:50 PM 86.0 °F 90.4 °F 69.8 °F 58% 29.80 in 2.2 mi North 5.8 mph - N/A   Haze
4:20 PM 86.0 °F 90.4 °F 69.8 °F 58% 29.80 in - North 4.6 mph - N/A   Haze
4:50 PM 84.2 °F 88.4 °F 69.8 °F 62% 29.80 in 1.9 mi North 4.6 mph - N/A   Haze
5:20 PM 84.2 °F 88.4 °F 69.8 °F 62% 29.80 in 1.9 mi North 3.5 mph - N/A   Haze
5:30 PM 84 °F - 70 °F 53% 29.83 in 1 mi Calm Calm - -   Haze
5:50 PM 82.4 °F 86.3 °F 69.8 °F 66% 29.80 in 1.9 mi North 4.6 mph - N/A   Haze
6:20 PM 82.4 °F 86.3 °F 69.8 °F 66% 29.83 in 1.9 mi North 4.6 mph - N/A   Haze
6:50 PM 82.4 °F 87.2 °F 71.6 °F 70% 29.83 in 1.9 mi North 4.6 mph - N/A   Haze
7:20 PM 82.4 °F 87.2 °F 71.6 °F 70% 29.83 in 1.9 mi North 4.6 mph - N/A   Haze
7:50 PM 80.6 °F 84.6 °F 71.6 °F 74% 29.86 in 1.9 mi North 4.6 mph - N/A   Haze
8:20 PM 78.8 °F - 71.6 °F 78% 29.86 in 1.9 mi North 4.6 mph - N/A   Haze
8:30 PM 80 °F - 68 °F 60% 29.89 in 1 mi Calm Calm - -   Haze
8:50 PM 78.8 °F - 69.8 °F 74% 29.86 in 1.9 mi North 3.5 mph - N/A   Haze
9:20 PM 78.8 °F - 69.8 °F 74% 29.89 in 1.9 mi NNE 4.6 mph - N/A   Haze
9:50 PM 78.8 °F - 69.8 °F 74% 29.89 in 1.9 mi North 3.5 mph - N/A   Haze
10:20 PM 78.8 °F - 69.8 °F 74% 29.89 in 1.9 mi Calm Calm - N/A   Haze
10:50 PM 77.0 °F - 68.0 °F 74% 29.86 in 1.6 mi Calm Calm - N/A   Haze
11:20 PM 75.2 °F - 68.0 °F 78% 29.86 in 1.6 mi Calm Calm - N/A   Haze
11:30 PM 76 °F - 67 °F 68% 29.90 in 1 mi Calm Calm - -   Haze
11:50 PM 75.2 °F - 68.0 °F 78% 29.86 in 1.6 mi Calm Calm - N/A   Haze